Delta Virtual Airport Information Service

St. Louis Lambert International Airport

ICAO: KSTL Country: United States
Latitude: 38.7487 Longitude: -90.37
Latest Arrival : DAL1072 (1A) (KDTW-KSTL) Latest Departure : SWA1860 (C) (KSTL-KOKC)


WX CaptureLIVE
Data provided by noaa.gov | Fetched at 06:16:43

METAR : KSTL 271051Z 00000KT 9SM CLR 23/19 A3004 RMK AO2 SLP158 T02280189 $

TAF : KSTL 270855Z 2709/2812 VRB04KT P6SM SKC


Runway Data for KSTL
Data provided by openaviationdata.com

Runway ID Mag Var Hdg Length Elevation Surface ILS Freq ILS Id ILS Slope
6 0 62° 7595 ft 552 ft Concrete 110.3 IJAK 3
12L 0 122° 8996 ft 552 ft Concrete 110.1 IABW 0
12R 0 122° 11032 ft 552 ft Concrete 109.7 ILMR 3
24 0 242° 7595 ft 552 ft Concrete 110.3 ISTL 3
30L 0 302° 11032 ft 552 ft Concrete 110.55 IFXD 0
30R 0 302° 8996 ft 552 ft Concrete 111.3 ISJW 3

St. Louis Lambert International Airport, United States
Use only for reference purposes



Not for navigational purposes.